This is the latest recevied weather packets stored in our database for station/object KH6DH-13. If no packets are shown the sender has not sent any weather packets the latest 10 day(s).
| Time | Temp. | Humidity | Pressure | Rain* | Wind** | Luminosity | Snow |
|---|---|---|---|---|---|---|---|
| 1777786952 | 24.44° C | - | - | 0 mm | 1.34 m/s, 97° | - | - |
| 1777786351 | 24.44° C | - | - | 0 mm | 0.45 m/s, 345° | - | - |
| 1777785750 | 24.44° C | - | - | 0 mm | 0.89 m/s, 86° | - | - |
| 1777785149 | 25° C | - | - | 0 mm | 0.89 m/s, 84° | - | - |
| 1777784548 | 25° C | - | - | 0 mm | 1.34 m/s, 1° | - | - |
| 1777783947 | 25° C | - | - | 0 mm | 1.34 m/s, 101° | - | - |
| 1777783346 | 26.11° C | - | - | 0 mm | 1.34 m/s, 56° | - | - |
| 1777782745 | 26.11° C | - | - | 0 mm | 0.45 m/s, 60° | - | - |
| 1777782144 | 26.67° C | - | - | 0 mm | 0.45 m/s, 39° | - | - |
| 1777781543 | 26.67° C | - | - | 0 mm | 1.79 m/s, 30° | - | - |
| 1777780942 | 27.22° C | - | - | 0 mm | 1.79 m/s, 87° | - | - |
| 1777780341 | 28.89° C | - | - | 0 mm | 1.79 m/s, 96° | - | - |
| 1777779740 | 31.67° C | - | - | 0 mm | 1.79 m/s, 80° | - | - |
| 1777779139 | 32.78° C | - | - | 0 mm | 2.24 m/s, 34° | - | - |
| 1777778538 | 32.22° C | - | - | 0 mm | 0 m/s | - | - |
| 1777777937 | 30.56° C | - | - | 0 mm | 1.34 m/s, 1° | - | - |
| 1777777336 | 30.56° C | - | - | 0 mm | 2.24 m/s, 53° | - | - |
| 1777776735 | 30.56° C | - | - | 0 mm | 1.79 m/s, 32° | - | - |
| 1777776134 | 31.11° C | - | - | 0 mm | 1.79 m/s, 86° | - | - |
| 1777775533 | 31.67° C | - | - | 0 mm | 2.24 m/s, 63° | - | - |
| 1777774932 | 31.11° C | - | - | 0 mm | 0.45 m/s, 180° | - | - |
| 1777774331 | 29.44° C | - | - | 0 mm | 2.68 m/s, 90° | - | - |
| 1777773730 | 29.44° C | - | - | 0 mm | 2.24 m/s, 114° | - | - |
| 1777773129 | 30° C | - | - | 0 mm | 2.68 m/s, 356° | - | - |
| 1777772528 | 29.44° C | - | - | 0 mm | 1.79 m/s, 51° | - | - |
* Rain latest hour (hover to see other rain measurements)
** Current wind speed in m/s (hover to see current wind gust speed)